Wind_Speed
12 4 5 13 19 25 30 34 38 41 46 52 56 60 62 65 67 70 73 75 77 79 81 82 83 84 85 86 88 88 89 89 89 90 90 91 93 94 96 98 101 104 109 116 127 135 138 137 136 137 136 136 137 137 138 138 136 133 129 126 125 126 126 126 123 123 123 119 116 116 118 117 112 109 108 107 102 99 98 98 98 98 97 93 90 89 89 90
14 6 4 12 19 26 30 34 37 40 44 49 54 58 61 64 66 69 71 74 76 78 79 81 82 83 84 85 86 87 87 87 88 88 89 90 91 93 94 96 98 101 104 109 115 125 134 139 138 137 137 137 137 137 138 138 139 138 135 131 128 127 127 128 127 126 126 125 121 117 116 119 120 117 112 110 108 106 103 100 98 98 100 100 97 94 93 92
17 9 1 11 18 25 30 34 37 40 42 46 51 55 59 63 65 68 70 72 74 76 78 79 81 82 83 84 84 85 85 85 86 87 88 89 90 91 93 94 96 99 101 105 109 114 122 132 139 139 138 137 137 138 138 138 138 139 139 136 133 130 129 129 129 129 128 127 125 123 119 117 118 120 120 118 115 112 109 107 103 101 100 100 100 99 98 96
20 13 3 8 16 23 28 32 36 40 42 45 48 52 56 60 63 66 69 71 73 75 77 78 79 80 81 81 82 82 82 83 84 85 86 88 89 90 91 93 95 97 99 102 105 108 113 121 130 137 140 139 138 138 138 138 137 138 139 139 138 136 133 131 130 130 130 128 127 126 124 122 119 118 120 121 121 119 117 114 111 108 106 103 102 101 101 101
21 16 7 4 13 21 27 31 35 38 42 45 48 50 53 56 59 63 66 69 71 73 74 75 76 77 78 78 78 79 79 80 81 83 84 85 86 87 88 90 92 94 97 99 101 105 108 112 119 128 136 140 140 138 138 138 138 137 137 139 139 138 137 135 132 131 131 130 129 127 126 126 125 123 121 120 121 122 122 120 119 116 113 111 109 106 105 104
24 18 11 2 9 18 25 30 33 36 40 44 46 49 51 52 55 59 63 66 69 70 71 72 73 73 74 74 75 75 75 76 77 79 80 82 82 83 85 86 89 91 93 95 98 101 104 108 112 117 125 134 139 139 137 138 138 138 138 138 138 138 138 138 136 134 133 134 132 130 128 128 127 127 126 125 123 123 123 123 123 122 119 117 115 113 110 108
28 20 14 6 4 13 21 27 32 35 38 41 45 48 50 50 52 53 57 63 66 67 67 68 68 69 70 70 71 72 72 73 74 75 76 77 79 80 81 82 84 86 89 91 94 97 100 104 107 111 116 123 131 136 138 137 138 139 139 138 137 137 137 137 139 138 136 136 135 134 133 130 128 128 129 128 128 126 125 124 124 124 124 122 120 118 116 114
32 23 16 10 3 8 16 24 29 33 36 40 44 46 47 47 48 48 52 58 61 61 63 63 64 65 66 66 67 67 68 69 70 71 72 73 74 75 77 78 80 82 85 87 89 92 96 99 103 106 109 114 120 127 134 137 136 137 138 139 137 137 137 136 136 138 140 139 137 137 137 135 133 131 129 128 129 129 128 127 127 126 125 124 124 123 121 120
36 27 18 12 6 4 11 19 25 30 33 38 41 42 44 45 46 46 49 54 55 57 59 60 60 61 62 63 63 63 64 65 66 67 68 68 69 71 72 74 76 79 81 83 85 88 91 94 98 101 104 108 112 117 124 130 133 135 136 138 138 137 137 137 136 135 136 139 140 139 137 137 137 136 134 132 131 130 129 128 128 128 126 125 124 124 124 124
39 32 23 14 8 5 7 14 20 26 31 36 39 41 43 44 46 47 49 52 54 56 58 59 59 59 59 60 60 60 61 62 63 63 64 65 66 67 69 70 72 75 77 80 82 84 86 89 93 96 99 102 106 110 115 120 126 131 133 134 136 137 137 136 136 135 134 134 138 140 139 137 136 136 136 136 136 134 132 131 130 129 128 127 125 124 123 123
41 35 27 18 10 5 6 11 17 23 29 33 37 40 43 44 45 47 49 52 54 56 58 58 58 58 57 57 57 57 58 59 59 60 60 61 63 64 66 67 69 71 74 76 78 80 83 85 88 91 94 98 101 105 108 112 117 123 128 130 132 135 137 136 135 135 135 134 134 136 139 140 138 136 134 134 135 135 136 136 135 134 133 132 130 129 127 125
45 38 31 23 13 6 5 10 15 21 27 32 36 39 43 45 45 47 50 52 54 56 56 57 57 56 56 55 54 54 55 55 56 57 57 59 60 61 63 64 66 68 71 73 75 77 79 81 84 87 90 94 97 99 102 106 110 114 120 124 127 131 133 135 135 134 134 134 134 135 135 136 138 138 138 136 135 134 134 135 137 138 137 137 136 135 133 132
49 41 35 28 19 9 5 9 14 20 25 31 36 40 43 45 46 48 50 52 53 55 55 55 55 55 55 53 52 52 53 53 54 54 55 56 57 58 59 61 63 65 68 70 72 75 76 78 81 83 87 90 93 95 98 101 104 108 112 116 121 125 127 131 133 134 134 133 134 134 133 133 134 136 138 140 139 138 136 135 134 135 136 137 138 138 137 137
53 45 38 32 25 15 6 7 13 19 24 29 35 39 43 46 48 49 51 53 54 55 55 55 55 55 54 52 52 52 52 52 53 53 53 53 54 55 56 58 60 62 65 68 70 72 74 76 78 81 84 87 90 93 95 97 100 102 106 110 114 117 121 126 129 131 132 133 134 133 130 131 132 134 135 136 137 139 140 140 138 136 135 134 135 136 137 138
57 50 43 36 29 21 12 6 12 18 24 28 33 38 42 46 49 50 52 54 56 57 57 57 56 55 54 52 52 52 51 52 52 53 53 53 53 53 54 55 56 58 61 64 67 69 72 74 76 79 82 85 88 91 93 95 97 99 101 104 107 111 116 120 124 127 128 129 133 132 129 128 129 131 133 135 135 136 137 139 140 140 138 137 136 135 135 136
62 54 48 40 34 27 19 9 9 17 23 28 32 37 42 46 50 51 53 55 57 58 58 58 57 56 55 54 53 53 52 52 53 53 53 53 53 53 52 53 53 55 57 60 63 66 68 71 73 76 80 83 86 89 91 93 95 97 98 100 103 107 111 114 118 122 124 126 128 129 129 128 127 128 130 132 134 135 135 136 136 137 138 138 138 137 136 136
69 60 52 46 39 32 25 16 8 13 22 28 32 36 41 46 50 52 54 56 58 59 59 59 59 58 57 56 55 54 54 54 54 54 55 55 54 54 53 52 52 53 53 55 58 60 64 67 70 74 76 80 83 86 89 92 94 96 98 100 102 104 106 109 112 115 119 122 124 126 126 125 127 128 128 129 131 133 134 135 135 135 135 135 136 136 136 136
74 67 58 51 44 37 31 24 15 9 17 26 33 37 40 45 50 52 55 57 59 59 60 60 60 59 59 58 57 57 57 56 55 55 56 56 56 55 54 54 53 52 53 53 54 56 59 62 66 70 73 76 80 84 87 90 93 96 97 98 100 102 103 105 107 110 113 116 119 121 121 122 123 126 127 128 129 129 131 132 133 133 133 133 134 134 134 134
77 72 65 57 50 43 36 30 23 14 10 19 30 37 41 44 49 52 55 57 59 60 61 62 61 61 61 60 60 60 59 58 57 56 57 57 57 56 56 55 54 54 53 53 54 54 56 58 60 64 68 73 77 81 84 87 90 93 95 96 98 99 101 102 103 105 108 110 113 115 117 118 120 122 124 126 127 128 128 129 129 130 131 132 132 132 133 133
78 75 71 64 56 49 42 36 29 22 14 11 20 31 39 44 49 52 55 57 60 61 63 64 64 63 63 63 62 61 61 59 58 57 57 57 57 57 57 57 56 56 56 56 55 55 55 56 57 60 63 68 71 75 78 82 86 89 92 94 96 98 99 101 102 103 105 106 108 110 112 114 115 117 119 121 123 124 125 126 126 127 127 128 129 130 130 131
77 76 74 70 63 56 48 41 35 29 22 14 12 21 32 41 48 52 55 58 60 62 64 65 66 66 65 65 64 63 62 61 59 58 57 57 58 58 58 58 58 58 58 58 58 58 57 57 57 59 60 62 64 68 72 76 81 85 88 91 94 97 98 100 101 103 104 105 106 107 108 110 111 112 114 115 117 118 120 122 123 124 124 125 125 126 127 128
77 77 76 73 69 63 55 48 40 34 29 22 15 13 21 32 42 49 54 58 60 62 64 66 67 68 68 67 67 66 65 64 62 61 60 59 59 59 59 59 59 59 60 60 60 60 59 59 60 61 61 61 61 63 65 69 73 77 82 86 90 93 96 98 100 101 103 103 104 105 106 107 108 108 109 110 111 112 113 115 117 119 120 121 122 123 124 125
80 78 76 75 73 68 63 55 47 40 34 29 23 16 14 21 31 42 50 57 60 62 65 67 68 69 69 69 69 68 67 67 66 65 63 62 61 61 60 60 60 60 61 61 61 62 61 62 62 63 63 63 63 63 64 65 67 70 74 78 83 87 91 94 97 99 101 101 102 103 104 105 105 106 106 107 107 108 109 110 112 113 115 116 118 119 120 121
83 80 78 76 75 72 69 62 55 47 40 34 29 24 17 14 20 30 42 51 58 62 64 67 69 70 71 71 71 70 70 70 69 69 68 66 65 64 63 62 62 61 62 62 62 62 62 63 64 64 65 65 65 65 66 67 67 68 70 72 75 79 83 87 91 94 97 98 100 101 103 103 103 104 104 105 106 107 108 108 109 110 111 112 114 115 117 118
86 83 80 78 76 74 72 68 62 55 47 40 34 30 25 19 15 20 30 41 51 58 63 66 69 71 72 73 73 73 73 72 72 72 71 70 69 68 67 66 65 65 64 64 64 63 63 64 65 66 66 67 68 68 68 69 69 70 70 71 72 74 76 79 83 86 90 92 95 99 100 99 100 101 102 103 105 105 106 107 108 108 109 110 111 112 114 115
89 86 83 81 78 75 73 72 68 62 55 47 40 34 30 26 20 16 20 29 39 49 57 64 67 70 72 73 75 75 75 75 75 75 74 74 73 72 71 70 69 68 68 68 67 65 65 65 65 66 67 68 69 69 70 71 71 71 71 72 73 74 75 76 77 80 82 84 87 92 94 94 95 98 99 101 102 103 104 106 107 108 109 110 111 111 112 113
91 88 85 83 81 78 76 74 71 67 62 55 48 41 35 30 26 20 16 20 28 37 47 56 63 68 71 73 75 76 77 78 78 78 77 77 77 76 76 74 73 72 72 72 71 69 68 68 68 68 68 69 69 70 71 72 73 72 73 75 76 76 76 77 77 78 78 79 81 83 85 86 87 90 94 96 98 100 102 104 106 107 109 110 111 111 112 113
93 90 87 85 83 82 79 76 73 71 67 62 55 48 42 35 31 26 22 18 20 26 35 45 54 62 68 72 75 77 78 79 80 80 80 80 80 80 80 79 78 77 77 76 74 73 73 72 72 71 71 71 71 72 73 74 74 74 75 77 78 78 79 79 79 80 80 80 79 79 81 82 80 80 85 89 91 93 96 100 103 105 107 108 110 111 112 112
95 92 89 87 85 84 82 79 76 74 71 67 61 55 49 42 36 31 27 23 19 20 25 34 43 52 60 68 73 77 79 80 81 81 81 82 82 82 83 83 83 82 82 81 79 78 78 77 76 76 75 75 74 75 75 75 76 76 77 78 79 80 81 81 82 82 83 82 80 79 82 82 78 77 80 83 85 88 91 94 97 99 102 104 106 108 109 110
97 94 91 88 86 85 84 82 80 77 74 71 67 62 55 49 43 37 32 29 25 21 20 25 33 42 50 58 66 73 77 80 82 83 83 83 84 84 84 85 85 85 85 85 84 83 83 82 81 80 79 79 78 78 78 78 77 77 78 80 81 82 82 83 84 84 85 83 81 81 83 84 81 78 79 83 84 87 89 91 92 94 96 98 100 102 104 106
98 96 93 89 87 85 84 83 82 80 77 75 72 68 62 56 50 44 38 34 30 27 23 22 25 32 40 48 56 63 70 76 80 82 84 85 86 86 86 86 86 86 86 86 86 86 86 86 85 84 83 82 82 81 81 80 79 79 80 81 82 83 84 84 85 86 85 83 82 83 86 87 84 80 80 84 86 88 89 91 92 94 95 96 97 98 100 101
99 97 94 91 88 86 85 84 83 82 79 77 75 72 68 63 57 51 45 39 35 32 29 25 23 26 32 39 47 54 61 68 73 78 81 84 86 87 87 88 88 88 88 88 88 88 88 88 87 87 86 85 85 84 84 83 82 82 82 83 84 86 86 86 86 86 85 84 84 86 88 89 86 82 82 85 86 89 91 93 95 96 96 97 98 99 99 100
101 98 95 92 89 87 86 85 84 83 81 78 77 75 72 69 64 58 53 46 41 36 34 31 26 24 27 32 38 45 52 60 66 71 76 79 82 85 86 88 88 89 89 89 90 90 90 89 89 89 88 87 87 87 87 86 86 86 86 86 87 88 88 88 88 87 86 86 86 87 90 89 86 84 84 85 87 89 92 95 96 97 98 99 100 100 101 101
102 99 96 93 91 88 87 86 85 85 83 80 78 77 75 73 69 64 59 53 48 42 38 35 32 28 25 27 32 37 44 51 58 64 70 74 78 81 83 85 87 88 89 89 90 90 90 90 90 90 90 89 89 89 89 89 89 89 89 89 89 90 90 90 90 90 89 89 89 89 90 87 85 85 86 87 89 90 92 94 97 98 100 101 101 102 102 103
102 100 97 94 91 89 88 87 87 86 85 83 81 79 77 76 73 69 64 59 54 49 43 39 36 33 29 27 28 31 37 43 49 56 63 68 73 77 80 82 85 86 87 89 89 90 90 90 90 91 91 91 91 91 91 91 91 91 91 91 91 91 92 93 92 92 92 92 91 90 89 87 86 87 88 89 91 92 94 96 98 99 99 100 101 102 103 103
102 100 97 94 91 89 88 87 87 87 86 85 83 81 79 78 76 73 69 64 59 54 49 44 40 37 34 30 28 29 32 36 42 48 55 61 66 71 75 79 82 84 86 88 88 89 90 90 90 91 92 92 92 93 93 93 93 93 93 92 93 94 95 95 95 94 94 94 92 90 89 88 89 89 89 90 92 95 97 98 98 99 99 100 101 101 102 102
101 100 97 94 91 89 88 87 87 87 87 87 85 83 81 79 78 76 73 69 64 59 55 50 45 42 39 35 31 29 30 32 37 42 47 53 58 64 70 75 78 81 84 86 87 88 89 90 90 91 91 92 93 93 94 94 94 94 94 94 96 97 97 97 96 96 96 95 92 91 90 90 90 90 90 92 95 96 97 98 98 99 100 100 101 101 101 101
101 100 97 94 91 89 88 87 87 87 87 88 86 84 83 81 80 78 76 73 69 64 59 55 50 46 44 41 36 32 30 31 34 37 41 46 51 57 63 68 72 76 79 82 84 86 88 90 90 91 91 92 93 93 94 94 95 95 95 96 97 97 97 98 98 97 96 96 93 91 91 91 91 91 92 95 97 97 98 98 99 100 101 101 101 101 101 102
100 99 97 94 91 89 88 87 86 87 88 88 88 86 85 83 82 80 79 76 73 68 64 60 56 51 47 45 41 37 33 32 32 34 37 41 45 51 57 61 65 69 73 76 79 82 84 86 88 89 91 92 93 94 94 95 96 96 96 96 97 97 97 97 97 97 96 95 93 92 91 91 92 94 96 97 99 99 100 100 101 102 102 102 102 102 102 103
99 98 96 94 91 89 88 87 86 87 87 88 88 88 87 85 84 82 81 79 76 73 69 65 60 56 52 48 45 42 37 34 33 33 35 38 41 45 50 54 58 63 66 70 73 76 79 82 84 86 88 90 90 92 93 94 95 95 95 95 96 96 97 97 97 96 96 95 95 94 92 92 94 96 98 98 99 101 101 102 102 102 102 102 102 102 103 104
98 97 96 93 91 89 88 87 86 86 87 88 89 89 88 87 86 84 83 81 79 76 73 69 65 61 57 52 49 47 42 37 35 34 34 36 39 41 44 48 53 57 60 64 67 71 74 76 79 81 84 86 87 89 90 91 91 92 92 93 94 95 96 96 95 95 96 96 95 94 92 90 92 95 96 98 100 101 102 102 102 102 101 101 102 103 104 104
97 96 95 92 90 88 88 87 86 86 86 88 88 89 89 88 88 86 85 83 82 79 76 73 69 66 62 57 54 51 47 42 37 35 34 35 36 38 41 44 48 51 55 58 62 65 68 71 73 76 79 81 83 85 86 87 88 89 89 90 92 93 93 94 94 93 94 94 93 93 90 88 91 94 96 99 101 102 102 101 101 101 101 101 102 102 103 104
97 95 94 92 90 88 87 87 86 86 86 87 88 89 90 90 89 88 87 85 84 82 79 76 73 69 66 62 57 54 51 47 41 37 35 35 36 37 38 41 44 47 50 53 57 60 63 66 68 71 73 76 78 80 81 83 84 85 86 87 89 90 91 92 91 91 92 91 91 92 90 87 90 95 97 99 100 101 101 100 100 100 100 100 101 101 102 102
96 94 93 91 89 88 87 86 86 86 86 87 88 89 90 90 90 89 88 87 86 84 82 79 76 72 69 66 61 57 55 51 46 41 38 36 36 36 37 39 41 44 47 50 53 56 58 61 63 66 69 71 73 75 76 78 80 81 82 83 84 85 86 87 87 88 88 88 89 91 88 87 91 94 96 97 97 98 98 98 98 98 98 98 98 98 98 98
96 94 92 90 89 87 86 86 86 86 86 87 88 89 89 90 91 90 89 88 87 85 84 82 79 75 72 69 65 61 58 55 50 45 41 38 36 36 37 38 40 42 44 47 49 52 54 56 59 62 65 67 69 71 73 74 76 76 76 78 79 80 81 81 82 82 82 83 86 87 85 86 88 90 91 93 93 92 92 92 92 93 93 93 93 93 92 91
95 93 91 90 88 87 85 85 85 86 86 87 88 89 89 90 91 91 90 89 88 87 85 84 81 78 75 72 69 64 61 58 54 49 44 41 38 37 37 38 39 41 42 44 47 49 51 53 56 58 61 63 65 68 69 71 72 72 72 74 74 75 76 76 76 76 78 80 80 81 82 82 83 84 85 85 85 85 84 85 85 86 86 87 88 87 87 87
95 93 91 89 88 86 85 84 85 85 86 87 88 89 89 89 90 91 91 90 89 88 87 85 83 81 77 74 71 68 64 60 57 52 47 43 40 39 37 37 39 40 42 43 45 46 48 51 53 55 57 59 61 64 66 68 69 69 70 70 71 72 72 72 72 73 75 76 74 75 78 79 78 79 79 78 79 79 79 80 81 82 84 85 85 85 86 87
95 93 91 89 87 86 84 83 83 85 86 87 88 89 89 89 90 91 91 91 90 89 88 86 85 82 79 76 73 70 66 62 59 55 50 45 42 40 38 38 38 40 41 42 44 45 46 48 51 52 54 56 58 60 62 64 66 67 67 68 68 69 69 69 70 71 73 72 70 72 75 75 75 77 77 76 76 77 78 79 81 82 83 84 84 86 87 88
94 92 90 89 88 86 84 82 83 84 85 86 87 88 89 89 90 91 92 91 90 89 89 87 86 84 81 77 75 73 69 65 61 58 53 48 45 42 40 39 39 40 40 42 43 45 46 47 49 50 52 53 55 57 59 61 63 64 65 66 66 67 68 68 70 71 72 71 71 72 72 73 76 78 77 75 76 76 78 80 81 82 83 84 85 87 87 87
93 91 89 88 88 86 84 82 82 83 85 86 87 88 89 89 90 91 92 92 90 90 89 88 86 85 83 79 76 74 72 68 64 61 56 51 47 44 41 40 39 40 40 41 43 44 45 47 49 50 50 51 52 54 56 57 59 61 62 63 64 66 68 69 70 71 71 70 72 72 70 73 78 79 75 75 76 77 79 80 82 83 83 84 85 86 86 86
92 91 89 88 87 87 84 82 82 83 84 86 87 88 89 90 90 91 93 93 92 91 90 89 88 86 84 81 78 76 74 71 67 63 59 54 49 46 43 42 40 40 41 41 42 43 44 46 49 50 49 50 52 53 54 55 56 57 59 62 64 65 67 68 68 69 70 70 71 71 70 74 78 77 74 74 76 78 79 81 82 82 82 82 83 83 84 84
91 90 89 88 87 87 85 82 82 83 84 85 86 87 88 89 90 91 93 93 93 92 90 90 89 87 86 83 80 77 75 73 69 65 62 57 52 47 45 43 41 40 41 41 41 43 44 45 48 49 49 50 52 52 53 54 53 53 58 62 63 64 65 66 67 68 69 69 69 70 71 74 76 76 75 75 76 77 79 80 80 80 79 79 80 81 81 80
Wind_Direction
18 1 179 178 186 190 189 190 192 195 195 196 197 198 200 201 202 204 205 206 207 208 210 211 213 214 216 217 218 219 221 222 222 223 224 224 225 224 224 224 224 223 223 222 222 222 223 223 222 222 223 225 226 228 228 229 229 229 227 227 229 231 231 232 232 232 232 232 233 235 237 237 236 236 236 238 238 237 237 237 237 237 238 239 240 240 241 241
25 14 171 174 184 189 189 189 191 195 197 197 198 199 201 202 203 204 205 206 207 208 210 211 212 214 216 217 218 220 221 222 223 223 224 225 225 225 225 225 225 225 224 224 223 223 223 224 224 223 223 224 225 227 228 229 230 231 230 229 228 229 230 231 232 232 233 233 233 233 235 238 239 238 236 236 237 238 239 238 237 237 238 240 240 241 242 242
29 20 173 175 183 189 190 189 190 194 197 199 200 201 202 203 204 205 206 207 208 209 210 211 212 214 215 217 219 220 221 222 223 224 224 225 225 226 226 226 226 225 226 225 225 224 224 225 225 225 225 224 225 225 227 229 230 231 232 232 231 229 229 230 231 232 233 234 234 234 234 236 238 239 239 238 238 238 239 240 240 239 239 240 241 241 242 242
31 25 3 183 182 188 191 190 190 192 195 199 202 204 205 205 206 207 207 208 209 209 210 212 213 214 216 217 219 220 222 223 224 225 225 226 226 226 226 226 226 226 226 226 226 226 225 225 226 226 227 227 226 225 226 227 229 230 232 233 233 232 231 230 230 231 233 234 235 235 235 235 236 238 239 240 241 240 239 240 241 241 242 242 242 242 242 242
30 30 15 202 186 188 191 191 192 192 194 198 201 204 207 209 209 209 209 209 210 210 211 212 213 214 216 217 219 220 222 223 225 225 226 227 227 227 227 227 227 227 227 227 227 227 227 227 226 227 227 228 228 227 227 227 228 229 231 232 233 234 233 232 231 232 232 233 234 235 236 237 237 237 238 239 241 242 242 241 241 241 242 243 244 243 243 243
26 31 25 338 197 191 192 192 193 194 195 197 199 202 206 210 211 212 211 210 210 211 211 212 213 215 216 217 219 221 222 224 226 227 227 228 228 228 228 228 228 229 229 228 228 228 228 228 228 228 228 228 229 230 229 228 228 229 230 231 232 233 234 234 234 233 233 234 235 235 236 237 238 238 239 239 239 241 242 243 243 243 243 243 244 244 244 244
24 29 29 11 228 201 195 193 193 194 196 197 199 201 204 207 210 213 213 211 210 210 210 211 213 215 216 218 219 221 223 225 226 227 228 229 229 229 229 229 229 229 230 230 229 229 229 229 229 229 229 229 230 230 231 231 230 229 230 230 231 232 233 235 235 235 235 235 236 236 237 237 237 238 240 241 241 241 242 242 243 244 244 245 244 244 245 245
24 25 28 21 328 222 203 197 194 195 196 198 200 202 203 205 208 211 212 212 211 209 209 210 212 214 216 218 220 222 223 225 227 228 230 230 231 231 230 230 230 230 230 230 230 230 230 230 230 230 230 230 230 231 232 232 232 231 231 231 232 232 232 233 234 235 236 236 237 237 238 238 238 239 239 240 241 242 243 243 244 244 245 246 246 246 246 245
24 23 23 23 1 274 220 205 198 196 196 198 201 201 201 202 204 207 210 211 210 208 207 209 211 214 216 218 220 222 224 226 228 229 231 231 232 232 231 231 230 230 230 231 231 231 231 231 231 231 231 231 231 231 232 233 234 234 233 233 233 233 233 233 234 235 236 236 237 238 238 239 239 240 240 240 241 242 243 244 245 245 246 246 247 247 247 247
24 23 20 19 11 322 251 220 205 199 197 199 201 200 200 200 201 205 207 208 208 208 208 209 212 214 217 219 221 224 226 228 229 231 232 232 233 233 232 231 231 230 231 231 231 232 232 232 231 231 232 232 232 232 232 233 234 234 235 235 234 234 234 234 235 235 236 236 237 238 238 239 239 240 240 241 242 242 243 244 245 245 246 246 247 247 247 248
22 23 21 16 11 342 277 240 218 205 201 202 203 201 199 198 200 203 204 205 207 208 209 211 213 215 218 220 223 225 227 229 231 232 233 233 234 234 233 232 231 231 231 231 232 232 233 232 232 232 232 232 233 233 233 233 234 235 236 236 236 236 236 236 236 236 237 237 238 238 238 239 240 240 241 241 242 242 243 244 245 245 246 246 247 247 247 247
21 22 22 18 10 352 288 253 233 216 206 204 204 202 199 198 200 201 201 204 207 210 211 213 215 217 219 221 224 227 229 231 232 232 233 233 234 234 233 233 232 231 231 231 232 232 233 233 233 233 233 233 233 234 234 234 235 235 236 236 237 237 237 237 237 238 238 238 239 238 239 239 240 241 242 243 243 243 243 243 244 245 246 247 247 247 248 248
22 22 22 20 13 358 301 256 240 227 215 208 205 203 201 200 201 201 201 203 207 211 213 215 217 219 220 223 225 228 230 231 231 231 232 232 233 233 233 233 232 232 231 231 231 232 232 233 233 233 233 233 234 234 234 235 235 235 236 237 237 238 239 238 238 239 239 240 240 240 240 240 240 241 242 243 244 245 245 245 245 245 246 246 247 248 248 249
23 23 22 22 18 6 331 260 242 233 223 214 209 206 203 202 202 203 203 204 207 211 214 216 219 220 222 224 227 229 231 231 231 231 231 232 232 232 232 232 232 232 232 232 232 232 232 232 233 233 233 233 234 234 234 235 236 236 236 237 237 238 239 239 239 239 240 241 241 241 241 241 241 241 242 243 244 245 246 247 247 247 247 247 247 248 248 249
24 24 24 23 21 14 356 289 244 236 229 221 214 210 207 204 204 205 205 206 208 211 214 217 219 221 224 226 228 230 230 230 230 231 231 231 232 233 233 233 233 232 233 232 232 232 232 232 233 233 233 233 233 234 234 235 236 236 237 237 238 238 239 239 240 240 241 241 242 242 243 243 243 243 243 243 244 244 245 246 247 248 248 249 249 249 249 249
26 25 25 24 24 21 11 340 262 238 233 228 221 216 211 208 207 208 208 209 211 212 214 217 219 222 225 227 229 230 231 231 231 231 231 232 232 233 233 233 233 233 233 233 233 233 233 233 233 233 234 234 234 234 234 235 235 236 237 237 238 238 239 239 240 240 241 242 242 243 243 244 245 245 245 244 244 245 245 246 247 247 248 249 250 250 250 250
27 26 26 25 25 24 20 7 318 250 236 232 228 223 217 212 211 211 211 212 213 214 216 217 219 222 225 227 229 230 231 231 232 232 232 232 232 232 233 233 234 234 234 234 234 234 234 234 234 234 234 234 235 235 235 235 236 236 236 237 238 238 239 239 240 241 241 242 243 243 244 245 246 247 247 247 246 246 246 247 247 248 248 248 249 250 250 251
27 27 27 26 26 26 25 20 2 299 246 235 232 229 225 218 215 215 215 215 216 218 219 219 220 223 225 227 229 230 231 232 233 233 233 233 233 233 233 234 234 235 235 236 235 235 235 235 235 235 235 235 235 235 235 235 236 236 237 237 238 239 240 240 241 241 242 242 243 244 244 245 246 247 248 248 248 248 248 248 248 249 249 249 250 250 250 251
26 27 27 27 26 26 26 25 19 358 290 246 235 232 231 226 221 219 219 219 219 220 221 221 222 224 226 228 229 231 232 233 234 234 234 234 234 234 234 234 234 235 235 236 236 236 236 236 236 236 236 236 236 236 236 237 237 237 238 238 239 240 240 241 241 242 242 243 243 243 244 245 246 246 247 248 249 249 250 250 250 250 250 251 251 251 252 252
24 25 27 27 27 26 26 26 25 18 354 289 248 237 233 231 228 225 224 223 224 224 223 223 224 226 228 229 230 232 233 235 236 236 236 236 235 235 235 235 235 236 236 236 236 236 237 237 237 238 238 238 238 238 238 238 239 239 239 239 240 240 241 241 241 242 242 243 243 243 244 244 245 246 247 248 249 250 250 251 251 251 252 252 252 252 253 253
20 23 25 26 27 26 26 26 26 25 17 352 293 252 239 235 233 231 229 228 228 228 227 226 226 227 229 230 231 233 234 235 236 237 237 237 237 237 237 237 237 237 237 237 237 237 237 237 237 238 239 239 239 240 240 240 240 240 240 240 240 241 241 241 242 242 242 243 243 244 244 245 245 246 247 248 249 250 251 251 252 252 253 253 253 253 253 254
17 20 22 24 25 26 26 25 25 26 25 17 352 297 258 243 236 234 234 232 232 231 230 230 230 230 230 231 232 233 233 235 235 236 237 238 238 239 239 239 239 239 239 240 240 240 239 239 239 239 239 239 240 240 240 241 241 241 241 242 242 242 242 242 243 243 243 244 244 245 245 245 246 247 247 248 249 250 251 251 252 252 253 253 253 254 254 254
16 17 19 21 23 24 25 25 25 24 25 25 17 354 304 265 247 239 236 236 235 235 234 234 233 233 233 233 233 233 234 234 235 236 237 237 238 238 239 240 240 241 241 241 241 241 241 241 242 241 241 241 240 240 241 241 241 242 242 242 243 243 243 243 244 244 244 245 245 245 246 246 246 247 247 248 249 249 250 251 252 252 253 253 253 254 254 254
14 15 17 18 20 22 23 24 24 23 23 24 24 17 358 312 272 252 242 239 237 237 237 237 237 236 236 236 236 235 235 235 235 236 236 237 237 238 238 239 240 240 241 241 241 241 242 243 243 244 243 243 242 242 242 242 242 242 242 242 243 243 243 244 244 245 245 245 246 246 246 246 247 247 248 248 249 249 250 251 251 252 253 253 253 253 254 254
12 13 15 16 17 19 20 22 22 22 22 21 22 22 18 0 319 277 256 246 241 239 239 239 239 239 239 239 239 238 237 237 237 237 237 237 237 238 238 239 240 240 241 241 242 242 242 243 244 244 245 245 244 244 243 243 243 243 243 243 243 244 244 244 244 245 245 245 246 246 246 247 247 248 248 249 249 250 250 251 251 252 252 252 253 253 253 254
9 11 13 14 15 16 17 19 20 20 20 20 20 20 20 16 1 324 282 260 250 245 241 240 240 241 241 241 241 240 240 239 239 238 238 238 238 238 238 239 240 241 241 242 242 242 243 244 244 245 246 246 246 245 245 245 245 245 245 245 245 245 245 245 245 245 245 245 245 246 247 247 247 248 249 249 250 250 250 251 251 251 252 252 252 253 253 254
6 8 10 12 13 14 15 16 17 18 19 19 18 18 17 17 14 0 326 288 267 255 247 244 242 241 242 242 243 242 241 241 242 241 241 240 240 239 239 240 240 241 242 242 243 243 244 245 246 246 247 247 248 247 247 246 246 246 246 246 246 246 246 245 245 245 245 245 245 246 246 246 246 248 249 249 249 250 251 251 251 251 252 252 252 253 253 254
4 5 7 9 11 12 13 14 15 16 16 17 17 17 16 14 14 10 358 332 297 273 258 251 247 244 242 242 243 244 243 243 243 243 243 243 242 241 241 241 241 241 242 242 243 243 244 245 246 247 248 249 249 249 248 248 247 247 247 247 247 247 247 247 246 246 246 246 246 246 247 246 245 246 248 249 249 250 250 250 251 251 252 252 253 253 253 254
2 3 4 7 8 10 11 12 12 13 14 15 15 15 15 13 12 10 8 358 333 301 275 260 253 248 245 243 243 243 244 245 245 245 245 244 244 243 243 242 242 242 242 242 243 243 244 245 245 246 248 249 249 249 249 248 248 247 247 247 248 248 248 248 247 247 247 246 247 247 248 248 245 245 248 249 249 250 249 250 250 251 251 252 252 253 253 254
1 1 2 4 6 8 9 10 11 11 12 12 13 13 13 12 12 10 9 5 355 336 306 278 262 254 250 247 245 243 243 244 245 246 246 245 245 245 244 244 244 244 244 244 244 243 244 244 245 246 247 248 248 248 248 248 248 247 247 247 248 249 249 249 249 248 248 248 248 248 249 249 247 246 248 249 250 250 250 250 250 251 251 252 252 253 253 253
359 360 360 1 3 5 7 8 9 9 10 10 11 11 11 11 10 9 8 6 2 355 337 308 283 267 258 252 248 246 245 244 244 245 245 246 246 246 246 246 245 245 245 245 245 245 244 245 245 246 247 247 247 247 247 247 247 247 247 248 248 249 249 250 250 250 250 249 249 249 249 249 248 247 248 249 250 251 252 252 252 252 252 252 252 252 253 253
357 358 359 359 0 3 4 6 7 8 8 8 9 9 10 9 9 8 7 5 3 0 353 337 311 286 271 260 254 250 248 246 245 244 244 245 246 246 247 246 246 246 246 246 246 246 246 247 247 247 248 247 247 246 246 246 247 247 247 248 249 249 250 250 251 251 252 251 250 250 250 250 249 248 248 250 252 253 253 253 253 253 253 253 253 253 253 254
355 356 357 357 358 360 2 3 5 6 6 7 7 8 8 8 8 7 6 4 2 0 357 351 335 311 289 273 262 256 252 249 248 246 245 244 245 245 246 246 247 247 247 247 247 247 247 248 248 248 248 247 247 246 246 246 247 247 248 248 249 250 250 251 252 252 253 253 252 251 251 251 251 251 250 250 251 253 253 254 254 254 254 254 254 254 254 255
353 354 355 356 357 358 359 1 2 4 5 5 6 6 6 7 7 6 5 4 2 360 358 355 348 333 311 290 276 265 257 253 251 249 248 246 245 245 245 246 246 247 247 247 247 247 247 247 248 248 247 247 247 247 247 247 247 248 248 249 250 251 251 252 252 253 253 253 253 253 253 252 252 252 252 251 251 252 254 255 255 255 255 255 256 256 256 256
351 352 354 354 355 356 357 359 -0 1 2 3 4 4 5 5 6 5 5 4 2 0 358 355 352 345 330 311 293 278 267 259 254 251 250 249 248 247 246 246 246 246 246 247 247 247 247 247 247 247 247 247 247 248 248 248 249 249 250 251 251 252 253 253 253 253 254 254 254 255 255 254 253 253 253 253 253 253 254 254 255 256 257 257 258 258 258 258
350 351 352 353 354 354 355 356 358 359 0 1 2 3 3 4 4 4 4 3 2 1 359 356 353 350 343 328 310 294 280 268 260 255 252 250 249 248 248 247 247 246 246 246 247 247 247 247 247 247 247 248 248 248 249 250 250 251 251 252 253 253 253 254 254 254 255 256 256 257 256 255 254 253 253 254 254 254 255 255 256 257 258 258 259 259 260 260
348 349 350 351 352 353 354 355 356 357 358 359 360 1 2 2 2 3 3 2 1 0 359 357 354 352 348 340 326 309 294 280 269 262 257 253 251 249 249 248 248 247 247 247 247 247 247 248 248 248 248 248 249 249 250 250 251 251 252 252 253 253 254 255 255 256 257 257 257 257 256 256 255 255 255 255 255 256 257 257 258 258 259 259 260 260 261 262
347 348 348 350 350 351 352 353 354 355 356 357 358 359 360 0 1 1 1 1 0 360 359 358 356 353 350 346 337 323 308 293 281 271 263 258 254 251 250 249 248 248 248 248 248 247 247 247 248 248 248 249 249 250 250 251 252 252 252 253 253 254 255 255 256 256 256 257 256 256 256 256 257 257 256 256 257 257 258 259 259 260 260 261 261 262 262 263
345 346 347 348 349 350 350 351 352 353 354 355 356 357 358 359 359 359 360 360 360 359 358 357 356 354 351 349 343 333 319 305 293 281 272 264 258 254 252 251 250 249 249 249 248 248 248 248 248 248 248 249 249 250 250 251 251 252 252 253 253 254 255 255 256 256 256 256 256 256 256 256 257 257 257 258 258 259 259 259 260 260 261 261 262 262 263 264
344 345 346 347 347 348 349 349 350 351 352 353 354 355 356 357 357 358 358 358 359 358 357 357 356 354 352 349 347 341 329 316 304 292 281 272 265 259 256 254 252 251 250 250 250 249 249 249 248 248 249 249 249 249 250 250 251 251 252 252 253 254 254 255 255 256 256 256 256 256 255 256 257 258 259 259 259 260 260 260 260 260 261 261 262 263 263 264
343 344 344 345 346 346 347 348 348 349 350 351 352 353 354 355 355 356 356 357 357 357 357 356 355 354 352 350 348 344 337 325 313 302 291 280 272 266 261 257 254 253 252 251 251 250 250 250 249 249 249 250 250 250 250 250 251 251 252 252 253 254 254 255 255 255 256 256 256 256 256 256 257 258 259 259 260 259 259 260 260 261 262 262 263 263 263 264
341 342 343 344 344 345 345 346 347 347 348 349 350 351 352 353 354 354 355 355 356 356 356 355 354 354 353 351 348 346 341 332 321 310 300 289 280 272 266 262 259 256 254 253 252 251 251 250 250 249 249 250 250 250 251 251 251 252 252 252 253 253 254 254 255 255 256 256 257 257 257 256 257 258 258 259 259 260 260 261 262 262 263 263 263 264 264 264
340 341 342 343 343 343 344 344 345 345 346 347 348 349 350 351 352 352 353 354 354 354 355 355 354 353 352 351 348 346 343 336 327 317 307 297 288 280 273 267 263 260 258 256 254 253 251 251 250 250 249 250 250 250 251 252 252 252 252 253 253 254 254 255 255 256 256 257 258 258 258 258 258 258 258 258 259 260 261 262 263 263 263 264 264 264 264 264
339 340 341 341 342 342 342 343 343 344 344 345 346 347 348 349 350 351 351 352 352 353 353 354 353 352 351 350 349 346 344 339 332 323 314 305 296 288 280 272 267 263 261 259 257 256 254 252 251 250 250 250 250 250 250 251 251 252 252 253 254 254 255 256 256 257 257 258 259 259 259 258 258 258 258 259 260 260 261 262 263 264 264 264 264 264 264 264
337 338 339 340 340 340 341 341 341 342 342 343 344 346 347 348 348 349 350 350 351 351 351 352 352 351 350 350 348 346 344 341 335 327 319 312 304 295 287 279 273 268 264 261 260 259 257 255 253 252 250 250 250 250 250 250 251 251 252 253 254 255 255 256 257 257 258 258 258 259 259 258 258 258 259 260 260 261 262 262 263 264 264 264 264 264 264 265
335 337 338 338 339 339 339 340 340 340 341 341 342 343 345 346 347 347 348 349 349 350 350 350 351 350 350 349 348 346 344 341 337 331 323 316 309 301 292 284 278 273 268 265 262 261 260 258 256 254 252 251 250 250 250 250 251 252 252 253 254 255 256 256 257 258 258 258 258 259 260 259 259 259 259 260 261 261 262 262 263 263 264 264 264 265 265 266
333 335 336 337 337 337 338 338 338 338 339 339 340 341 343 344 345 346 346 347 348 348 348 349 349 349 349 348 347 346 344 341 338 333 326 319 312 305 297 289 282 277 272 268 265 263 262 260 259 257 255 253 252 251 250 250 251 251 252 253 254 255 256 257 257 258 258 258 258 259 260 259 259 260 260 260 261 261 262 263 264 264 264 265 266 267 267 267
332 333 334 335 336 336 336 336 336 337 337 338 338 339 341 342 343 344 345 345 346 347 347 347 348 348 348 347 346 345 343 341 338 335 329 322 315 309 302 295 287 280 275 272 268 265 263 261 260 259 257 255 253 252 251 251 251 252 252 253 254 255 256 257 258 258 258 258 259 259 260 261 261 261 261 261 262 262 263 264 264 265 266 267 267 268 268 268
330 331 332 333 334 334 335 335 335 335 336 336 336 337 339 340 341 342 343 344 344 345 345 346 346 346 347 346 346 345 343 341 338 335 331 325 318 312 306 299 291 284 278 274 270 267 264 262 261 260 258 257 255 254 252 252 252 252 253 254 255 256 256 257 257 258 258 259 260 259 260 262 263 262 262 263 264 264 265 265 265 266 267 267 268 268 269 269
328 329 330 331 332 333 333 333 333 333 334 334 335 336 337 338 339 340 341 342 343 343 344 344 345 345 345 345 345 344 343 341 338 335 332 327 320 315 309 302 295 288 282 277 272 269 266 263 262 261 259 258 257 255 254 253 253 253 254 255 255 255 256 256 257 258 259 260 260 261 262 263 263 263 264 265 266 266 266 266 267 267 267 268 268 269 269 270
326 327 328 329 331 331 331 331 331 331 332 333 333 334 335 336 337 338 339 340 341 342 342 343 343 343 344 344 344 343 342 341 338 335 332 328 322 316 311 305 298 291 285 280 275 272 268 264 263 261 260 259 258 257 256 255 254 255 255 255 255 256 256 257 258 259 260 260 261 262 263 262 263 265 265 266 266 267 267 267 267 267 268 268 269 269 269 270
325 325 326 327 328 329 329 329 329 330 331 331 332 332 333 334 335 336 338 339 339 340 341 341 342 342 342 343 343 342 342 340 337 335 332 329 323 318 312 307 301 294 288 282 278 274 270 266 264 263 261 260 259 258 257 257 257 257 256 256 256 257 258 259 259 260 261 262 262 263 263 263 265 266 266 266 266 267 267 267 268 268 268 269 269 269 269 270
Height
10391 10392 10392 10394 10397 10401 10404 10408 10413 10418 10423 10428 10433 10439 10445 10451 10457 10463 10469 10474 10480 10485 10491 10496 10502 10508 10513 10518 10523 10528 10534 10539 10544 10549 10553 10558 10563 10567 10571 10575 10580 10585 10589 10594 10599 10605 10610 10615 10620 10626 10632 10636 10641 10644 10646 10650 10653 10658 10662 10667 10672 10675 10679 10683 10685 10685 10687 10691 10696 10698 10701 10704 10708 10712 10714 10717 10721 10722 10723 10727 10731 10734 10736 10740 10744 10747 10750 10752
10394 10395 10395 10396 10399 10402 10405 10409 10414 10419 10424 10429 10434 10439 10445 10451 10456 10462 10467 10472 10477 10483 10488 10494 10499 10504 10509 10514 10519 10524 10529 10534 10539 10543 10548 10552 10556 10560 10565 10569 10574 10578 10582 10586 10592 10597 10602 10607 10612 10618 10623 10628 10632 10635 10638 10642 10645 10648 10652 10657 10663 10667 10670 10673 10677 10678 10679 10682 10688 10692 10695 10697 10701 10706 10708 10711 10714 10716 10718 10721 10725 10728 10729 10733 10736 10739 10742 10746
10397 10398 10398 10399 10401 10404 10407 10410 10414 10420 10425 10431 10435 10440 10445 10450 10455 10460 10465 10470 10475 10481 10486 10491 10496 10501 10505 10509 10514 10519 10524 10529 10533 10537 10542 10546 10550 10554 10559 10563 10567 10571 10575 10579 10584 10590 10594 10599 10604 10609 10614 10618 10621 10625 10629 10634 10638 10641 10644 10648 10653 10657 10660 10663 10668 10671 10672 10675 10681 10686 10689 10691 10694 10698 10701 10704 10707 10710 10712 10715 10719 10721 10723 10725 10729 10732 10735 10738
10401 10401 10402 10402 10403 10406 10409 10412 10416 10420 10425 10431 10436 10441 10445 10450 10454 10459 10464 10469 10473 10478 10483 10488 10493 10497 10501 10506 10510 10515 10519 10523 10527 10532 10536 10540 10544 10548 10552 10556 10560 10564 10568 10572 10577 10582 10586 10591 10595 10600 10604 10607 10611 10616 10621 10626 10630 10633 10635 10639 10642 10647 10650 10654 10660 10664 10666 10669 10673 10677 10682 10685 10687 10690 10693 10696 10699 10702 10705 10708 10711 10714 10716 10718 10721 10724 10727 10730
10404 10404 10405 10406 10407 10408 10411 10414 10417 10420 10424 10429 10435 10440 10445 10450 10454 10458 10462 10466 10471 10475 10480 10485 10489 10494 10498 10502 10507 10511 10514 10518 10522 10526 10530 10534 10538 10542 10546 10550 10554 10557 10561 10565 10569 10574 10579 10582 10586 10591 10595 10598 10602 10607 10613 10617 10621 10624 10627 10630 10633 10637 10641 10645 10652 10657 10659 10660 10663 10668 10673 10677 10680 10683 10685 10688 10691 10693 10697 10700 10702 10705 10708 10711 10713 10716 10720 10723
10408 10407 10408 10409 10410 10411 10413 10415 10418 10421 10424 10428 10433 10438 10443 10449 10454 10457 10461 10464 10468 10473 10477 10482 10486 10491 10495 10499 10503 10506 10510 10513 10517 10521 10525 10528 10532 10536 10539 10543 10547 10551 10555 10559 10562 10567 10570 10574 10578 10583 10587 10590 10593 10599 10604 10608 10612 10616 10617 10621 10625 10629 10634 10637 10643 10648 10650 10651 10654 10659 10664 10668 10672 10674 10676 10679 10682 10684 10688 10691 10693 10696 10699 10702 10705 10709 10712 10716
10412 10411 10410 10411 10413 10413 10415 10417 10419 10422 10425 10428 10432 10436 10441 10447 10452 10456 10460 10463 10466 10470 10475 10480 10484 10488 10492 10495 10499 10502 10505 10509 10512 10516 10519 10523 10526 10530 10533 10537 10541 10545 10548 10552 10555 10559 10562 10566 10570 10575 10579 10582 10586 10591 10595 10598 10603 10606 10608 10612 10618 10622 10626 10630 10634 10638 10640 10642 10645 10650 10653 10658 10662 10665 10669 10671 10673 10676 10679 10682 10684 10687 10690 10694 10698 10702 10704 10707
10415 10414 10413 10414 10415 10416 10417 10418 10420 10422 10425 10428 10431 10435 10440 10445 10450 10455 10459 10462 10465 10469 10473 10478 10481 10485 10489 10492 10496 10499 10502 10505 10508 10511 10514 10518 10521 10524 10528 10531 10535 10538 10541 10545 10548 10551 10554 10559 10562 10566 10571 10574 10578 10583 10585 10588 10593 10598 10600 10604 10609 10613 10617 10621 10624 10628 10631 10633 10636 10640 10644 10648 10652 10656 10661 10663 10664 10667 10670 10673 10675 10677 10682 10686 10690 10693 10695 10699
10419 10417 10416 10416 10417 10418 10419 10420 10421 10423 10425 10428 10431 10435 10439 10443 10448 10452 10457 10462 10465 10469 10472 10476 10479 10482 10486 10489 10493 10496 10499 10501 10504 10507 10509 10513 10516 10519 10522 10525 10528 10532 10535 10538 10541 10544 10547 10551 10555 10559 10563 10567 10571 10574 10577 10581 10585 10589 10591 10594 10599 10603 10607 10611 10614 10618 10622 10625 10627 10631 10634 10639 10643 10647 10652 10653 10654 10658 10661 10664 10666 10668 10673 10677 10680 10684 10686 10689
10422 10420 10419 10418 10418 10419 10420 10421 10422 10424 10426 10428 10431 10434 10437 10441 10446 10450 10455 10460 10464 10467 10470 10473 10477 10480 10483 10486 10490 10492 10495 10497 10500 10503 10505 10508 10510 10512 10516 10519 10522 10525 10528 10531 10534 10537 10540 10544 10548 10552 10556 10559 10562 10565 10569 10573 10576 10579 10582 10585 10590 10594 10597 10601 10605 10609 10613 10616 10618 10621 10625 10629 10633 10637 10642 10644 10646 10651 10653 10655 10658 10659 10663 10666 10670 10673 10675 10678
10426 10423 10421 10420 10420 10420 10421 10423 10424 10425 10426 10428 10431 10433 10437 10440 10444 10448 10453 10458 10462 10465 10468 10471 10474 10478 10481 10484 10486 10489 10491 10493 10496 10499 10501 10503 10505 10507 10510 10513 10516 10519 10522 10525 10528 10531 10533 10537 10541 10545 10548 10551 10553 10556 10561 10566 10569 10571 10574 10577 10581 10584 10588 10592 10596 10600 10604 10606 10607 10610 10614 10619 10624 10629 10633 10635 10638 10641 10644 10645 10647 10649 10651 10654 10657 10661 10664 10667
10430 10426 10424 10423 10422 10422 10422 10424 10425 10426 10427 10429 10431 10433 10436 10439 10443 10447 10451 10456 10460 10463 10467 10470 10473 10476 10478 10481 10483 10485 10487 10490 10492 10494 10497 10498 10500 10502 10505 10507 10510 10513 10516 10518 10521 10524 10527 10531 10534 10537 10540 10543 10546 10549 10554 10558 10560 10563 10566 10568 10571 10574 10578 10583 10587 10590 10593 10595 10596 10599 10604 10610 10616 10619 10621 10623 10626 10629 10632 10633 10636 10639 10641 10643 10646 10650 10653 10656
10434 10430 10427 10425 10424 10423 10423 10424 10425 10427 10428 10429 10431 10433 10435 10439 10442 10446 10449 10453 10458 10461 10464 10468 10470 10473 10475 10478 10480 10482 10483 10485 10487 10490 10492 10493 10495 10497 10499 10502 10504 10507 10509 10512 10515 10518 10521 10524 10526 10529 10533 10536 10539 10542 10546 10549 10551 10555 10557 10560 10563 10566 10569 10573 10577 10580 10582 10584 10586 10589 10595 10602 10606 10608 10609 10612 10615 10617 10620 10623 10625 10628 10631 10634 10637 10639 10642 10645
10438 10434 10430 10427 10425 10424 10424 10424 10426 10427 10428 10429 10431 10433 10435 10438 10441 10444 10447 10451 10455 10458 10461 10464 10467 10469 10472 10474 10476 10478 10479 10481 10483 10485 10487 10488 10490 10492 10494 10496 10499 10501 10503 10505 10508 10511 10514 10516 10519 10522 10525 10528 10531 10534 10538 10540 10543 10546 10549 10552 10555 10558 10559 10562 10566 10570 10572 10574 10576 10580 10586 10593 10595 10597 10599 10602 10606 10607 10609 10612 10614 10617 10620 10623 10626 10628 10631 10634
10442 10437 10433 10430 10427 10426 10425 10424 10425 10427 10428 10429 10431 10432 10434 10437 10439 10442 10445 10448 10451 10454 10458 10460 10463 10465 10468 10470 10472 10473 10475 10476 10478 10480 10482 10483 10485 10487 10489 10491 10493 10495 10496 10499 10502 10504 10507 10510 10513 10515 10518 10520 10523 10527 10529 10532 10535 10538 10541 10544 10546 10547 10549 10552 10555 10560 10563 10565 10567 10571 10578 10584 10584 10586 10588 10591 10595 10597 10598 10600 10603 10607 10610 10612 10615 10618 10621 10623
10446 10441 10437 10433 10429 10427 10426 10425 10425 10426 10427 10429 10431 10432 10434 10436 10438 10440 10443 10445 10448 10451 10453 10456 10459 10461 10463 10465 10467 10468 10470 10472 10473 10475 10477 10479 10480 10482 10484 10486 10488 10489 10491 10493 10496 10498 10500 10503 10506 10508 10510 10513 10516 10519 10521 10524 10528 10530 10533 10535 10536 10537 10540 10543 10546 10550 10553 10556 10559 10563 10570 10575 10574 10574 10577 10580 10584 10586 10589 10591 10593 10598 10601 10603 10605 10608 10611 10613
10449 10444 10440 10436 10432 10429 10427 10426 10425 10425 10426 10428 10430 10431 10433 10434 10436 10438 10440 10443 10445 10447 10449 10451 10454 10456 10458 10460 10462 10463 10465 10467 10469 10470 10472 10473 10475 10477 10479 10481 10483 10485 10486 10487 10490 10492 10494 10497 10499 10501 10503 10506 10509 10511 10514 10517 10520 10521 10523 10525 10526 10528 10531 10535 10538 10542 10545 10549 10553 10556 10562 10566 10565 10565 10567 10570 10573 10576 10579 10581 10583 10586 10590 10593 10595 10597 10599 10602
10453 10448 10443 10439 10435 10431 10428 10426 10426 10425 10425 10426 10428 10430 10431 10433 10434 10436 10437 10439 10441 10443 10445 10447 10449 10451 10453 10455 10456 10458 10460 10461 10463 10465 10467 10468 10470 10472 10474 10476 10478 10480 10481 10483 10485 10487 10488 10490 10492 10494 10497 10499 10501 10502 10505 10508 10510 10511 10514 10517 10519 10522 10526 10529 10532 10536 10538 10541 10545 10548 10552 10555 10555 10555 10556 10558 10561 10564 10568 10571 10573 10575 10578 10581 10584 10586 10589 10591
10456 10451 10446 10442 10438 10434 10430 10427 10426 10425 10425 10425 10426 10427 10429 10430 10432 10433 10435 10436 10438 10439 10441 10443 10445 10446 10448 10450 10451 10452 10455 10456 10458 10460 10462 10463 10465 10467 10469 10471 10473 10475 10476 10478 10479 10481 10483 10484 10486 10489 10490 10491 10492 10494 10497 10501 10502 10505 10509 10511 10513 10516 10519 10522 10525 10528 10529 10531 10535 10539 10541 10543 10544 10545 10546 10548 10550 10554 10557 10560 10563 10565 10568 10570 10573 10576 10579 10580
10460 10454 10449 10445 10440 10436 10433 10429 10426 10424 10424 10424 10424 10424 10426 10427 10429 10430 10432 10433 10434 10435 10436 10438 10440 10442 10443 10445 10446 10448 10450 10452 10454 10455 10457 10459 10460 10462 10464 10466 10468 10469 10471 10472 10474 10475 10477 10480 10482 10482 10482 10484 10486 10489 10493 10495 10496 10498 10501 10503 10505 10507 10510 10512 10515 10517 10519 10521 10525 10528 10530 10532 10535 10537 10538 10539 10542 10545 10548 10550 10553 10555 10558 10560 10562 10565 10567 10568
10462 10457 10452 10447 10442 10438 10434 10431 10427 10424 10423 10422 10422 10422 10422 10423 10425 10427 10428 10429 10430 10431 10432 10433 10435 10436 10438 10440 10441 10443 10445 10447 10449 10451 10452 10454 10455 10457 10459 10460 10462 10463 10465 10466 10468 10470 10472 10475 10475 10475 10476 10479 10481 10484 10486 10487 10488 10490 10492 10494 10496 10498 10500 10503 10505 10507 10509 10512 10516 10518 10521 10524 10527 10529 10531 10532 10534 10537 10538 10540 10542 10544 10546 10548 10550 10552 10554 10555
10464 10459 10453 10449 10444 10440 10436 10432 10429 10425 10422 10420 10419 10419 10419 10420 10420 10422 10424 10425 10426 10427 10428 10428 10430 10431 10432 10434 10435 10437 10440 10441 10443 10445 10447 10448 10450 10451 10453 10454 10456 10458 10459 10461 10463 10465 10467 10468 10469 10470 10471 10473 10475 10477 10479 10480 10481 10483 10485 10486 10487 10490 10491 10493 10495 10498 10500 10503 10507 10509 10512 10516 10518 10521 10524 10525 10526 10527 10528 10529 10530 10532 10533 10535 10537 10539 10541 10542
10465 10460 10455 10450 10445 10441 10437 10433 10429 10426 10423 10420 10418 10417 10416 10416 10416 10417 10418 10419 10421 10422 10423 10423 10424 10425 10427 10428 10429 10431 10433 10435 10437 10439 10440 10442 10444 10445 10446 10448 10450 10451 10453 10455 10456 10458 10460 10462 10463 10464 10465 10467 10470 10471 10472 10473 10474 10475 10477 10477 10479 10481 10481 10484 10487 10489 10491 10495 10498 10500 10502 10506 10509 10512 10514 10515 10516 10516 10517 10518 10519 10521 10522 10523 10525 10527 10529 10530
10466 10461 10456 10451 10446 10441 10437 10433 10429 10426 10423 10420 10417 10414 10413 10412 10412 10412 10412 10413 10414 10416 10417 10418 10419 10420 10421 10422 10423 10425 10427 10428 10430 10432 10433 10435 10437 10438 10439 10441 10443 10445 10446 10447 10449 10451 10454 10455 10456 10457 10458 10461 10463 10464 10465 10466 10467 10468 10468 10470 10471 10472 10473 10476 10478 10479 10482 10485 10488 10489 10491 10497 10501 10502 10504 10505 10506 10507 10508 10509 10510 10511 10511 10512 10513 10515 10516 10517
10465 10461 10456 10451 10447 10442 10437 10433 10429 10426 10422 10419 10416 10413 10411 10409 10408 10408 10407 10407 10408 10409 10410 10411 10412 10414 10414 10416 10417 10418 10420 10421 10423 10424 10426 10428 10430 10431 10432 10434 10436 10437 10438 10440 10442 10444 10446 10447 10448 10449 10451 10453 10455 10457 10458 10458 10460 10461 10462 10463 10463 10464 10466 10467 10469 10470 10472 10476 10479 10477 10481 10490 10492 10492 10495 10496 10497 10499 10499 10499 10500 10500 10500 10500 10501 10502 10503 10504
10465 10460 10456 10451 10447 10442 10437 10433 10429 10425 10421 10418 10414 10411 10408 10406 10404 10403 10402 10402 10401 10402 10403 10403 10405 10406 10407 10409 10410 10411 10413 10414 10415 10416 10418 10420 10422 10423 10425 10427 10429 10430 10431 10432 10434 10437 10439 10439 10440 10441 10443 10445 10447 10449 10450 10451 10452 10454 10455 10455 10454 10456 10457 10459 10460 10460 10463 10467 10469 10467 10472 10481 10483 10482 10485 10486 10487 10489 10489 10489 10489 10488 10488 10488 10489 10490 10491 10492
10465 10460 10455 10451 10446 10441 10437 10432 10428 10424 10420 10416 10413 10410 10406 10403 10401 10399 10397 10396 10395 10395 10395 10396 10397 10398 10400 10402 10402 10403 10405 10406 10407 10409 10410 10412 10414 10415 10417 10419 10421 10422 10424 10424 10427 10430 10431 10431 10432 10434 10435 10437 10439 10441 10442 10442 10444 10447 10448 10445 10445 10447 10448 10450 10451 10452 10455 10457 10458 10460 10464 10470 10475 10475 10474 10475 10477 10478 10478 10477 10476 10476 10476 10477 10477 10479 10480 10481
10464 10460 10455 10450 10445 10440 10436 10431 10427 10423 10419 10415 10411 10408 10404 10401 10398 10395 10393 10391 10389 10389 10389 10389 10389 10390 10391 10393 10393 10395 10396 10397 10399 10400 10402 10403 10405 10407 10409 10411 10412 10413 10415 10416 10419 10422 10422 10423 10425 10426 10427 10429 10431 10432 10433 10434 10436 10438 10438 10436 10437 10438 10439 10441 10441 10443 10445 10447 10451 10455 10454 10458 10467 10469 10464 10465 10467 10467 10466 10464 10464 10464 10464 10465 10466 10467 10469 10470
10464 10459 10454 10449 10444 10439 10435 10430 10426 10422 10417 10413 10409 10405 10402 10398 10395 10392 10388 10386 10384 10383 10383 10382 10381 10382 10382 10383 10384 10385 10387 10388 10390 10391 10392 10394 10396 10398 10400 10401 10402 10404 10405 10407 10410 10413 10413 10414 10415 10417 10419 10420 10421 10422 10423 10425 10426 10428 10428 10427 10428 10428 10429 10430 10431 10434 10435 10438 10444 10447 10444 10447 10458 10462 10457 10456 10457 10454 10452 10452 10453 10453 10453 10454 10455 10456 10457 10458
10464 10459 10454 10448 10443 10438 10433 10429 10424 10420 10416 10411 10407 10403 10399 10395 10392 10389 10385 10382 10379 10378 10377 10375 10374 10373 10373 10374 10375 10375 10376 10378 10380 10381 10383 10385 10386 10388 10390 10391 10393 10395 10396 10398 10401 10403 10404 10405 10406 10407 10409 10411 10412 10412 10414 10415 10417 10419 10419 10419 10418 10418 10419 10420 10422 10423 10424 10431 10438 10438 10435 10435 10445 10454 10452 10447 10445 10442 10440 10442 10443 10443 10443 10443 10443 10444 10445 10446
10463 10458 10453 10448 10443 10437 10432 10428 10423 10418 10414 10409 10405 10400 10396 10392 10389 10385 10381 10378 10375 10373 10371 10369 10368 10366 10365 10365 10365 10366 10367 10368 10369 10371 10373 10374 10376 10378 10380 10381 10383 10385 10387 10389 10391 10393 10393 10394 10396 10398 10399 10401 10402 10403 10404 10406 10408 10409 10409 10409 10408 10408 10409 10410 10412 10413 10416 10425 10429 10427 10424 10423 10433 10445 10443 10437 10435 10433 10432 10432 10431 10431 10431 10431 10432 10433 10434 10434
10462 10457 10452 10447 10442 10436 10431 10426 10422 10417 10412 10408 10403 10398 10394 10389 10385 10381 10377 10374 10371 10368 10365 10363 10361 10360 10358 10357 10357 10357 10358 10358 10359 10360 10362 10363 10365 10367 10369 10371 10373 10374 10377 10379 10380 10382 10383 10384 10387 10388 10390 10391 10392 10393 10395 10396 10398 10398 10399 10399 10398 10398 10400 10401 10403 10405 10409 10414 10416 10415 10412 10413 10423 10433 10433 10430 10428 10423 10421 10420 10418 10418 10419 10420 10421 10422 10422 10423
10460 10455 10450 10445 10440 10434 10429 10424 10420 10415 10411 10406 10401 10396 10392 10387 10382 10377 10374 10370 10367 10363 10361 10358 10356 10354 10352 10350 10349 10349 10349 10349 10349 10350 10351 10352 10354 10356 10358 10360 10362 10363 10366 10368 10368 10371 10373 10375 10377 10378 10380 10381 10382 10383 10384 10386 10387 10387 10388 10389 10388 10389 10390 10392 10395 10397 10400 10402 10403 10402 10401 10406 10417 10421 10422 10422 10417 10411 10409 10407 10407 10407 10407 10408 10409 10410 10411 10412
10457 10452 10447 10442 10437 10432 10427 10422 10417 10413 10408 10404 10399 10394 10389 10385 10380 10375 10371 10366 10362 10359 10356 10352 10350 10348 10345 10344 10342 10341 10340 10340 10340 10340 10341 10342 10343 10345 10346 10349 10351 10352 10354 10356 10358 10360 10363 10365 10366 10367 10368 10370 10371 10372 10373 10374 10375 10377 10378 10378 10380 10380 10381 10384 10385 10386 10388 10389 10390 10391 10393 10401 10409 10409 10408 10408 10405 10402 10399 10396 10394 10394 10394 10396 10398 10399 10400 10401
10454 10450 10445 10440 10435 10430 10424 10419 10414 10410 10405 10401 10397 10392 10387 10382 10377 10372 10368 10363 10359 10355 10351 10347 10344 10342 10339 10337 10335 10334 10333 10332 10332 10331 10332 10332 10333 10334 10336 10337 10339 10340 10342 10344 10346 10349 10351 10353 10355 10356 10357 10359 10360 10361 10362 10364 10365 10368 10368 10369 10371 10372 10371 10372 10374 10375 10376 10376 10379 10383 10387 10394 10397 10396 10396 10395 10394 10392 10387 10384 10383 10383 10385 10386 10386 10387 10387 10388
10452 10447 10442 10437 10432 10427 10422 10417 10412 10407 10402 10398 10393 10389 10384 10379 10374 10370 10365 10360 10356 10351 10347 10343 10339 10336 10333 10331 10329 10327 10326 10325 10324 10323 10322 10323 10323 10325 10326 10327 10328 10329 10330 10332 10334 10336 10338 10342 10344 10345 10347 10348 10350 10351 10352 10354 10355 10357 10359 10360 10362 10360 10359 10360 10362 10365 10365 10366 10371 10376 10379 10382 10382 10384 10386 10384 10380 10378 10374 10374 10374 10374 10375 10374 10374 10375 10375 10376
10450 10445 10440 10435 10430 10425 10420 10415 10409 10404 10399 10395 10390 10386 10381 10376 10372 10367 10362 10357 10352 10348 10344 10339 10334 10331 10328 10325 10323 10320 10319 10317 10315 10314 10314 10314 10315 10316 10315 10316 10317 10318 10319 10320 10323 10325 10327 10330 10331 10333 10336 10337 10339 10341 10342 10343 10344 10347 10349 10350 10348 10347 10348 10350 10351 10354 10355 10356 10362 10366 10367 10369 10370 10373 10376 10371 10366 10365 10364 10365 10364 10363 10363 10362 10363 10363 10363 10364
10447 10442 10437 10432 10427 10422 10417 10412 10407 10402 10397 10392 10387 10382 10378 10373 10369 10364 10359 10354 10349 10344 10340 10335 10330 10326 10322 10319 10316 10314 10312 10310 10308 10307 10306 10305 10306 10305 10304 10305 10306 10307 10308 10309 10312 10314 10315 10317 10319 10321 10324 10326 10327 10329 10331 10333 10334 10335 10337 10337 10335 10336 10339 10339 10338 10342 10344 10344 10351 10356 10356 10358 10360 10362 10361 10356 10353 10354 10354 10353 10352 10351 10351 10351 10351 10351 10351 10351
10444 10439 10434 10429 10424 10419 10414 10409 10404 10399 10394 10389 10384 10379 10374 10370 10365 10360 10356 10351 10346 10340 10335 10331 10326 10322 10318 10314 10311 10308 10305 10303 10301 10299 10298 10297 10297 10296 10295 10296 10297 10297 10298 10299 10301 10303 10304 10306 10309 10311 10312 10313 10315 10317 10320 10321 10320 10321 10324 10325 10325 10326 10328 10328 10327 10330 10332 10333 10339 10344 10346 10350 10350 10346 10345 10343 10342 10342 10342 10340 10339 10339 10339 10339 10339 10339 10339 10339
10441 10436 10431 10426 10421 10416 10411 10406 10401 10396 10391 10386 10381 10376 10371 10366 10361 10357 10352 10347 10342 10336 10331 10326 10322 10317 10313 10309 10305 10302 10299 10296 10294 10292 10291 10289 10288 10287 10287 10287 10287 10288 10289 10290 10291 10293 10294 10295 10299 10300 10300 10301 10304 10306 10307 10308 10308 10310 10313 10314 10315 10315 10315 10316 10317 10319 10320 10322 10326 10329 10335 10341 10338 10333 10332 10332 10330 10329 10327 10326 10326 10326 10327 10328 10328 10328 10327 10326
10436 10432 10427 10422 10417 10412 10408 10403 10398 10393 10388 10383 10378 10373 10367 10362 10357 10353 10348 10343 10338 10333 10327 10322 10317 10312 10308 10303 10300 10297 10293 10290 10288 10285 10284 10281 10280 10279 10279 10278 10278 10278 10279 10280 10281 10282 10284 10285 10288 10290 10290 10291 10294 10294 10295 10296 10298 10300 10302 10304 10304 10303 10303 10304 10307 10309 10308 10308 10312 10314 10323 10332 10328 10322 10321 10318 10315 10314 10312 10312 10313 10315 10316 10317 10316 10315 10314 10312
10432 10428 10423 10418 10414 10409 10404 10399 10394 10389 10384 10380 10375 10369 10364 10359 10354 10349 10344 10339 10334 10329 10324 10318 10313 10308 10303 10299 10294 10291 10288 10284 10282 10279 10277 10274 10273 10272 10270 10270 10270 10269 10270 10271 10272 10272 10273 10275 10277 10280 10280 10281 10282 10283 10284 10286 10288 10290 10292 10293 10292 10291 10293 10292 10295 10298 10295 10297 10302 10302 10310 10321 10318 10311 10310 10304 10300 10299 10298 10300 10303 10303 10304 10304 10303 10301 10299 10298
10428 10423 10418 10414 10409 10405 10400 10395 10391 10386 10381 10376 10371 10366 10361 10355 10350 10345 10340 10335 10330 10325 10320 10315 10309 10304 10299 10294 10290 10286 10282 10279 10275 10273 10270 10268 10266 10264 10263 10262 10261 10261 10261 10262 10262 10262 10263 10265 10267 10268 10270 10270 10271 10273 10275 10276 10277 10279 10280 10280 10280 10280 10282 10281 10284 10287 10286 10289 10292 10289 10297 10309 10305 10297 10294 10290 10288 10288 10288 10289 10290 10290 10290 10290 10289 10287 10285 10283
10423 10419 10414 10410 10405 10400 10396 10391 10386 10382 10377 10372 10368 10363 10358 10352 10347 10341 10336 10331 10326 10321 10316 10311 10305 10300 10295 10290 10286 10281 10277 10274 10270 10266 10264 10262 10259 10257 10256 10254 10253 10253 10252 10252 10252 10252 10253 10255 10257 10258 10259 10260 10261 10262 10264 10265 10265 10266 10268 10269 10269 10270 10271 10272 10274 10275 10277 10281 10280 10277 10286 10293 10288 10282 10280 10278 10278 10278 10278 10278 10278 10277 10277 10276 10274 10272 10270 10270
10419 10414 10410 10405 10401 10396 10391 10387 10382 10378 10373 10368 10364 10359 10354 10349 10343 10338 10333 10328 10323 10317 10312 10307 10302 10297 10291 10286 10281 10277 10273 10269 10265 10261 10258 10255 10253 10251 10249 10247 10246 10245 10244 10244 10244 10243 10245 10246 10247 10247 10249 10250 10251 10251 10253 10253 10253 10255 10258 10258 10258 10260 10260 10261 10262 10264 10268 10270 10267 10266 10272 10275 10271 10270 10269 10266 10266 10267 10267 10268 10267 10265 10264 10262 10259 10258 10258 10259
10414 10410 10405 10401 10397 10392 10387 10383 10378 10373 10369 10365 10360 10355 10351 10346 10340 10335 10329 10324 10319 10314 10308 10303 10298 10293 10288 10282 10277 10272 10268 10264 10260 10256 10252 10249 10247 10244 10242 10240 10238 10237 10236 10236 10236 10236 10237 10237 10237 10238 10239 10240 10241 10242 10242 10243 10243 10246 10248 10247 10248 10249 10250 10250 10252 10255 10256 10254 10254 10257 10258 10258 10258 10257 10256 10255 10256 10257 10257 10256 10254 10253 10251 10249 10247 10247 10248 10247
10409 10405 10401 10397 10393 10388 10383 10379 10374 10369 10365 10361 10356 10351 10347 10342 10337 10332 10326 10321 10316 10310 10305 10300 10295 10289 10284 10279 10273 10268 10264 10259 10255 10251 10247 10244 10241 10238 10236 10234 10232 10230 10229 10228 10228 10228 10229 10229 10229 10230 10230 10231 10232 10232 10233 10234 10234 10236 10237 10238 10238 10239 10240 10241 10242 10244 10241 10240 10247 10250 10244 10243 10246 10244 10244 10246 10246 10246 10245 10244 10243 10241 10238 10237 10237 10238 10236 10234
10405 10401 10396 10392 10388 10384 10380 10375 10370 10365 10361 10357 10352 10347 10343 10338 10333 10328 10323 10317 10312 10307 10301 10296 10291 10286 10280 10275 10270 10264 10259 10255 10250 10246 10242 10239 10235 10232 10230 10228 10225 10223 10222 10221 10221 10221 10221 10221 10221 10221 10222 10223 10223 10224 10225 10225 10225 10227 10228 10228 10229 10230 10231 10232 10232 10231 10230 10231 10238 10238 10231 10233 10236 10231 10232 10235 10235 10235 10235 10234 10232 10229 10227 10228 10227 10225 10223 10221
10400 10396 10391 10387 10383 10379 10375 10371 10366 10361 10357 10353 10348 10343 10339 10334 10329 10324 10319 10314 10309 10303 10298 10292 10287 10282 10276 10271 10266 10260 10255 10250 10245 10241 10237 10233 10230 10227 10224 10221 10219 10217 10215 10214 10213 10213 10214 10214 10213 10214 10215 10215 10215 10216 10216 10217 10217 10218 10219 10220 10222 10222 10221 10221 10220 10220 10220 10223 10226 10224 10225 10227 10222 10217 10221 10225 10225 10225 10224 10222 10220 10218 10218 10217 10215 10212 10211 10211
10395 10391 10386 10382 10378 10374 10370 10367 10362 10357 10353 10349 10344 10339 10334 10330 10325 10320 10315 10310 10305 10299 10294 10289 10283 10278 10272 10267 10262 10256 10251 10246 10241 10236 10232 10228 10224 10221 10218 10215 10213 10211 10209 10208 10206 10206 10206 10206 10205 10206 10207 10208 10208 10208 10208 10209 10210 10210 10211 10212 10212 10211 10210 10211 10210 10210 10212 10215 10214 10213 10219 10218 10207 10204 10213 10215 10214 10214 10212 10209 10208 10207 10206 10206 10203 10201 10200 10199
10389 10385 10381 10377 10373 10369 10365 10362 10357 10353 10348 10344 10339 10334 10330 10325 10321 10316 10311 10306 10301 10296 10290 10284 10279 10274 10268 10263 10257 10252 10246 10241 10236 10231 10227 10223 10219 10215 10212 10209 10207 10204 10202 10201 10200 10199 10199 10199 10197 10197 10200 10200 10199 10200 10201 10201 10203 10204 10204 10202 10200 10200 10201 10201 10202 10202 10203 10204 10204 10205 10209 10205 10195 10196 10203 10205 10203 10201 10199 10197 10196 10195 10195 10194 10192 10190 10188 10187
10384 10379 10375 10371 10368 10364 10360 10356 10352 10348 10343 10339 10334 10330 10325 10320 10316 10311 10306 10301 10296 10291 10286 10280 10275 10269 10264 10259 10253 10248 10242 10237 10232 10227 10222 10218 10214 10210 10206 10203 10200 10198 10196 10194 10193 10192 10191 10192 10190 10190 10193 10192 10191 10193 10193 10194 10198 10199 10193 10189 10190 10192 10192 10192 10193 10193 10192 10194 10195 10196 10195 10192 10188 10188 10191 10193 10193 10190 10187 10184 10184 10184 10184 10183 10180 10178 10177 10176